User: anonymous   Login
Location: Theydon Bois
(51.6750°N, 0.1050°E)
Time: 10:11:12
(UTC+00:00)
Language:

ATLAS 5 CENTAUR R/B - Orbit

View from above orbital plane
View from above orbital plane
View from above satellite
View from above satellite

Ground track
Ground track

The orbit data is extracted from the following two-line orbital elements,

1 31702U 07027B   17346.23650469 0.00000250  00000-0  77223-4 0    00
2 31702  63.3622  63.9568 0298000   5.7057 354.2943 14.18603428    04
Epoch (UTC): 12 December 2017 05:40:34
Eccentricity: 0.0298000
inclination: 63.3622°
perigee height: 615 km
apogee height: 1045 km
right ascension of ascending node: 63.9568°
argument of perigee: 5.7057°
revolutions per day: 14.18603428
mean anomaly at epoch: 354.2943°
orbit number at epoch: 0

The dashed part of the orbit path shows where the satellite is in the earth's shadow,  

DLR